Location: ???? ????
(41.4149°N, 22.8816°E)
Time: 14:59:37
(UTC+00:00)

Cosmos 1464 Rocket - Pass Details

Date: 14 July 2020
Orbit: 952 x 1002 km, 82.9° (Epoch: 04 August)

Event Time Altitude Azimuth Distance (km) Brightness Sun altitude
Exits shadow 01:59:22 - 196° (SSW) 2,901 6.0 -11.1°
Reaches altitude 10° 01:59:44 10° 196° (SSW) 2,766 5.9 -11.1°
Maximum altitude 02:06:04 68° 279° (W) 1,076 4.1 -10.2°
Drops below altitude 10° 02:12:25 10° 2° (N) 2,772 7.0 -9.3°
Sets 02:14:59 0° 5° (N) 3,720 7.8 -8.9°
